THORAD DELTA 1 DEB, 8300

Orbit data source: Space-Track

THORAD DELTA 1 DEB, 8300 is space debris in SSO originally from a launch on Fri, 15 Nov 1974 UTC launched from the Air Force Western Test Range (AFWTR). Debris objects in space refer to the collection of defunct objects orbiting the Earth. Examples of debris include non-operational satellites, rocket bodies, and fragments generated from explosions, collisions, or faulty payload assembly.

Loading next visibility...
Identifier
8300, 1974-089BH
Orbit
SSO
Country
Flag of USUS
Related business
Manufacturer
Unknown
Mission
Spacecraft
Bus & Motor
Unknown
Mass
Unknown
Launch date (UTC)
1974-11-15 (52 years ago)
Launch vehicle
Unknown
Launch site
Air Force Western Test Range (AFWTR)
Object type
Payload
Rocket body
Debris
Shape & HBR
Unknown shape, 0.1 m
Radar Cross Section
Medium (>0.1 m² and <1 m²)

Expand to show TLE details & history
Last TLE update: 2 weeks ago

TLE from 2 weeks ago
0 THORAD DELTA 1 DEB
1 08300U 74089BH  26152.34663634  .00000496  00000-0  54229-2 0  9993
2 08300 100.8959 113.6756 0354486  24.0121 131.4461 12.00664877540239
Epoch: 2026-06-01T08:19Z
TLE epoch observation values (Epoch: 2026-06-01T08:19:09.379Z)
Latitude
21.18596°
Longitude
-76.68995°
Altitude
1,874.705 km
Speed
6.868 km/s
True Right ascension
19h 51m 44s
True Declination
21° 05' 10"
Sunlit
Object was in daylight at epoch
Visualization orbit readout
Latitude
Unknown
Longitude
Unknown
Altitude
Unknown
Speed
Unknown
Apparent Right ascension
Unknown
Apparent Declination
Unknown
Sunlit
N/A
Visualization observer readout
Local Sidereal Time
00:00:20
Azimuth
Unknown
Elevation
Unknown
Doppler factor
Unknown
Orbital elements
Apogee altitude
1,960.934 km
Perigee altitude
1,389.957 km
Semi-major axis
8,053.582 km
Eccentricity
0.03545
Inclination
100.8959°
RAAN
113.6756°
Arg. of periapsis
24.0121°
True anomaly
134.40281°
Mean anomaly
131.4461°
Eccentric anomaly
132.93314°
Mean motion
3.00303 °/min
Orbital period
119.88 mins
BSTAR
0.0054229
Loading maneuver chart data...
Computing Atmospheric mass density...

Documentation

Showing up to 5 results
|